星链-32762 (STARLINK-32762)

导读

STARLINK-32762是美国SpaceX星链卫星星座的一员,于2025年1月21日发射。星链项目旨在构建全球卫星互联网星座,为全球范围提供高速低延迟互联网服务,覆盖偏远地区、海洋及天空等传统网络难以触达的场景。该卫星入轨后,将和其他星链卫星组网,进一步提升星座覆盖密度与服务能力,推进星链全球网络布局。

基本信息
目录编号:
62748
目录名称:
STARLINK-32762
国际标识:
2025-014P
轨道中心:
EARTH
卫星名称:
星链-32762
卫星全名:
星链-32762 (STARLINK-32762)
卫星状态:
在轨 (已飞行509 天)
发射日期:
2025-01-21 UTC
国别 :
美国 (US)
星等 :
--
轨道信息
数据来源 国际轨道数据
星历时间: 2026-06-13T12:18:47+0800
1天前
查看轨道信息
半长轴: 6861.24km
偏心率: 0.0001047
轨道倾角: 42.993°
近地点辐角 291.271°
升交点赤经 338.373°
平近点角 68.803°
近地点: 482.384km
远地点: 483.822km
周期: 94.268分钟
每日圈数: 15.275621
详细信息
固有亮度:
5
最大亮度:
2.5
卫星平台:
Starlink V1.0
覆盖范围:
全球
运营商:
太空探索技术公司
运营商所在国:
美国
制造商(研发单位):
太空探索技术公司
制造商所在国:
美国
使用方式:
暂无
卫星简介
Starlink 计划是 SpaceX 推出的全球卫星互联网项目,通过发射低轨道卫星,为全球尤其是偏远地区提供高速、低延迟的互联网服务。自 2019 年起,Starlink 已部署数千颗卫星,旨在缩小全球数字鸿沟,推动互联网普及。该项目还为军事、航空等行业提供通信支持,带来广泛经济效益。
2D轨道图
3D轨道图
轨道高度分析图
轨道倾角分析图
轨道综合分析图
查看轨道综合分析图